CFC3436 EDDK-LDZA

Flight info

Callsign CFC3436
Flight time 1h 38m
Altitude 33000
Route KUMIK7K KUMIK L603 BESNI L605 ESEGA DCT MEDEL DCT EPOLA DCT GOLVA DCT PETOV
Aircraft A332/H-SDE3GHIJ2J3J5M1RVWXY/LB2D1

Departure

Time 2026-05-06 23:40
Airport Cologne Bonn Airport (EDDK)

Arrival

Time 2026-05-07 01:19
Airport Zagreb Franjo Tuđman International Airport (LDZA)
Time Latitude Longitude Altitude Speed Heading
2026-05-06 23:28 50.86814 7.11933 236 ft 0 kts 76°
2026-05-06 23:36 50.86815 7.11939 241 ft 1 kts 77°
2026-05-06 23:36 50.86815 7.11958 236 ft 2 kts 90°
2026-05-06 23:36 50.86815 7.11994 237 ft 4 kts 90°
2026-05-06 23:36 50.86814 7.12047 236 ft 6 kts 96°
2026-05-06 23:37 50.86789 7.12094 239 ft 6 kts 144°
2026-05-06 23:37 50.86749 7.12126 238 ft 7 kts 159°
2026-05-06 23:37 50.86696 7.12153 236 ft 9 kts 164°
2026-05-06 23:37 50.86631 7.12181 237 ft 10 kts 166°
2026-05-06 23:38 50.86558 7.12210 235 ft 11 kts 166°
2026-05-06 23:38 50.86478 7.12242 235 ft 12 kts 166°
2026-05-06 23:38 50.86390 7.12276 235 ft 14 kts 166°
2026-05-06 23:38 50.86294 7.12314 237 ft 14 kts 166°
2026-05-06 23:39 50.86212 7.12343 241 ft 11 kts 169°
2026-05-06 23:39 50.86149 7.12362 244 ft 8 kts 171°
2026-05-06 23:39 50.86101 7.12374 246 ft 7 kts 172°
2026-05-06 23:39 50.86050 7.12405 247 ft 9 kts 126°
2026-05-06 23:40 50.86058 7.12513 249 ft 15 kts 66°
2026-05-06 23:40 50.86184 7.12947 246 ft 81 kts 64°
2026-05-06 23:40 50.86547 7.14108 257 ft 153 kts 64°
2026-05-06 23:40 50.87025 7.15811 939 ft 170 kts 68°
2026-05-06 23:41 50.87357 7.17466 2238 ft 143 kts 71°
2026-05-06 23:41 50.87658 7.18928 2688 ft 167 kts 68°
2026-05-06 23:41 50.88113 7.20990 2901 ft 218 kts 64°
2026-05-06 23:41 50.88839 7.23102 3675 ft 219 kts 58°
2026-05-06 23:42 50.89595 7.25192 4421 ft 222 kts 59°
2026-05-06 23:42 50.90329 7.27361 5120 ft 226 kts 61°
2026-05-06 23:42 50.91034 7.29591 5840 ft 228 kts 63°
2026-05-06 23:42 50.91729 7.31867 6528 ft 232 kts 63°
2026-05-06 23:43 50.92302 7.34268 7195 ft 237 kts 76°
2026-05-06 23:43 50.92534 7.36869 7868 ft 241 kts 84°
2026-05-06 23:43 50.92653 7.39535 8531 ft 245 kts 86°
2026-05-06 23:43 50.92753 7.42244 9166 ft 249 kts 86°
2026-05-06 23:44 50.92856 7.45002 9777 ft 253 kts 86°
2026-05-06 23:44 50.92962 7.47793 10409 ft 255 kts 86°
2026-05-06 23:44 50.93072 7.50600 11041 ft 256 kts 86°
2026-05-06 23:44 50.93183 7.53431 11627 ft 259 kts 86°
2026-05-06 23:45 50.93294 7.56284 12200 ft 261 kts 86°
2026-05-06 23:45 50.93406 7.59157 12751 ft 263 kts 86°
2026-05-06 23:45 50.93519 7.62056 13296 ft 265 kts 86°
2026-05-06 23:45 50.93631 7.64983 13835 ft 267 kts 86°
2026-05-06 23:46 50.93744 7.67933 14336 ft 270 kts 86°
2026-05-06 23:46 50.93858 7.70916 14842 ft 273 kts 86°
2026-05-06 23:46 50.93972 7.73920 15346 ft 274 kts 87°
2026-05-06 23:46 50.94086 7.76950 15811 ft 277 kts 87°
2026-05-06 23:47 50.94053 7.80011 16283 ft 279 kts 97°
2026-05-06 23:47 50.93604 7.82998 16755 ft 280 kts 112°
2026-05-06 23:47 50.92718 7.85744 17207 ft 281 kts 122°
2026-05-06 23:47 50.91655 7.88347 17646 ft 283 kts 124°
2026-05-06 23:48 50.90558 7.90938 18097 ft 285 kts 125°
2026-05-06 23:48 50.89453 7.93545 18525 ft 287 kts 125°
2026-05-06 23:48 50.88340 7.96173 18948 ft 290 kts 126°
2026-05-06 23:48 50.87117 7.98710 19453 ft 291 kts 133°
2026-05-06 23:49 50.85679 8.00946 20015 ft 290 kts 142°
2026-05-06 23:49 50.84032 8.02777 20564 ft 290 kts 152°
2026-05-06 23:49 50.82221 8.04144 21091 ft 289 kts 161°
2026-05-06 23:49 50.80299 8.05016 21571 ft 289 kts 171°
2026-05-06 23:50 50.78303 8.05377 22047 ft 290 kts 180°
2026-05-06 23:50 50.74291 8.04780 22993 ft 292 kts 189°
2026-05-06 23:50 50.72290 8.04219 23423 ft 294 kts 191°
2026-05-06 23:51 50.70280 8.03601 23869 ft 295 kts 191°
2026-05-06 23:51 50.68262 8.02969 24289 ft 297 kts 191°
2026-05-06 23:51 50.66227 8.02341 24722 ft 300 kts 191°
2026-05-06 23:51 50.64181 8.01726 25142 ft 301 kts 190°
2026-05-06 23:52 50.62115 8.01119 25534 ft 304 kts 190°
2026-05-06 23:52 50.60033 8.00515 25927 ft 306 kts 190°
2026-05-06 23:52 50.57937 7.99913 26319 ft 308 kts 190°
2026-05-06 23:52 50.55820 7.99308 26687 ft 311 kts 190°
2026-05-06 23:53 50.53678 7.98697 26998 ft 315 kts 189°
2026-05-06 23:53 50.51521 7.98082 27393 ft 316 kts 189°
2026-05-06 23:53 50.49355 7.97464 27760 ft 318 kts 189°
2026-05-06 23:53 50.47178 7.96842 28119 ft 319 kts 189°
2026-05-06 23:54 50.44992 7.96224 28456 ft 322 kts 189°
2026-05-06 23:54 50.42783 7.95597 28775 ft 324 kts 189°
2026-05-06 23:54 50.40567 7.94966 29140 ft 325 kts 189°
2026-05-06 23:54 50.38342 7.94331 29487 ft 326 kts 189°
2026-05-06 23:55 50.36105 7.93694 29805 ft 328 kts 189°
2026-05-06 23:55 50.33855 7.93054 30134 ft 330 kts 189°
2026-05-06 23:55 50.31594 7.92413 30426 ft 332 kts 189°
2026-05-06 23:55 50.29318 7.91769 30716 ft 334 kts 189°
2026-05-06 23:56 50.27034 7.91124 30990 ft 336 kts 189°
2026-05-06 23:56 50.24727 7.90473 31277 ft 338 kts 189°
2026-05-06 23:56 50.22418 7.89823 31551 ft 340 kts 189°
2026-05-06 23:56 50.20089 7.89167 31815 ft 342 kts 189°
2026-05-06 23:57 50.17750 7.88507 32107 ft 343 kts 190°
2026-05-06 23:57 50.15402 7.87845 32387 ft 344 kts 190°
2026-05-06 23:57 50.13048 7.87181 32617 ft 346 kts 190°
2026-05-06 23:57 50.10673 7.86513 32849 ft 349 kts 190°
2026-05-06 23:58 50.05807 7.85149 32904 ft 365 kts 190°
2026-05-06 23:58 50.00702 7.83723 32907 ft 382 kts 190°
2026-05-06 23:59 49.95360 7.82230 32896 ft 400 kts 190°
2026-05-06 23:59 49.89833 7.80687 32896 ft 406 kts 190°
2026-05-07 00:00 49.84292 7.79150 32894 ft 406 kts 190°
2026-05-07 00:00 49.79670 7.77871 32899 ft 406 kts 190°
2026-05-07 00:01 49.73189 7.76074 32898 ft 406 kts 190°
2026-05-07 00:01 49.67647 7.74546 32901 ft 406 kts 190°
2026-05-07 00:02 49.62097 7.73017 32902 ft 406 kts 190°
2026-05-07 00:02 49.56548 7.71491 32889 ft 406 kts 190°
2026-05-07 00:03 49.50999 7.69967 32894 ft 406 kts 190°
2026-05-07 00:03 49.45450 7.68446 32900 ft 406 kts 191°
2026-05-07 00:04 49.39899 7.66932 32895 ft 406 kts 191°
2026-05-07 00:04 49.34344 7.65424 32899 ft 406 kts 190°
2026-05-07 00:05 49.28789 7.63916 32900 ft 406 kts 191°
2026-05-07 00:05 49.23233 7.62411 32901 ft 406 kts 191°
2026-05-07 00:06 49.17687 7.60912 32904 ft 405 kts 191°
2026-05-07 00:06 49.12136 7.59414 32903 ft 406 kts 191°
2026-05-07 00:07 49.06589 7.57917 32912 ft 405 kts 191°
2026-05-07 00:07 49.01050 7.56430 32910 ft 405 kts 191°
2026-05-07 00:08 48.95498 7.54945 32917 ft 410 kts 191°
2026-05-07 00:08 48.89815 7.53425 32916 ft 419 kts 191°
2026-05-07 00:09 48.84068 7.51969 32917 ft 420 kts 183°
2026-05-07 00:09 48.81176 7.52381 32925 ft 421 kts 166°
2026-05-07 00:09 48.78487 7.54121 32925 ft 424 kts 149°
2026-05-07 00:10 48.76250 7.57043 32928 ft 429 kts 131°
2026-05-07 00:10 48.74630 7.60853 32925 ft 434 kts 119°
2026-05-07 00:10 48.72103 7.69178 32924 ft 437 kts 116°
2026-05-07 00:11 48.69642 7.77579 32927 ft 437 kts 116°
2026-05-07 00:11 48.67196 7.85991 32924 ft 438 kts 116°
2026-05-07 00:12 48.64750 7.94408 32918 ft 438 kts 116°
2026-05-07 00:12 48.62312 8.02824 32916 ft 438 kts 116°
2026-05-07 00:13 48.59921 8.11284 32917 ft 438 kts 116°
2026-05-07 00:13 48.57544 8.19742 32914 ft 439 kts 116°
2026-05-07 00:14 48.55162 8.28202 32924 ft 439 kts 116°
2026-05-07 00:14 48.52780 8.36656 32916 ft 439 kts 116°
2026-05-07 00:15 48.50403 8.45120 32910 ft 439 kts 116°
2026-05-07 00:15 48.48030 8.53573 32919 ft 439 kts 116°
2026-05-07 00:16 48.46266 8.62379 32914 ft 444 kts 102°
2026-05-07 00:16 48.45455 8.71613 32909 ft 446 kts 100°
2026-05-07 00:17 48.44705 8.80859 32909 ft 446 kts 100°
2026-05-07 00:17 48.43964 8.90120 32910 ft 446 kts 101°
2026-05-07 00:18 48.43236 8.99377 32896 ft 446 kts 101°
2026-05-07 00:18 48.42526 9.08643 32889 ft 447 kts 101°
2026-05-07 00:19 48.42059 9.17974 32902 ft 451 kts 94°
2026-05-07 00:19 48.42186 9.27420 32886 ft 453 kts 92°
2026-05-07 00:20 48.42332 9.36875 32899 ft 452 kts 94°
2026-05-07 00:20 48.42241 9.46311 32900 ft 452 kts 96°
2026-05-07 00:21 48.42053 9.55758 32902 ft 453 kts 96°
2026-05-07 00:21 48.41861 9.64860 32910 ft 453 kts 97°
2026-05-07 00:22 48.41672 9.74129 32913 ft 454 kts 97°
2026-05-07 00:22 48.41633 9.76101 32901 ft 454 kts 97°
2026-05-07 00:23 48.41588 9.78304 32908 ft 454 kts 97°
2026-05-07 00:23 48.41390 9.87794 32905 ft 455 kts 97°
2026-05-07 00:24 48.41187 9.97297 32911 ft 455 kts 97°
2026-05-07 00:24 48.40975 10.06791 32915 ft 456 kts 97°
2026-05-07 00:25 48.40754 10.16311 32913 ft 456 kts 97°
2026-05-07 00:25 48.40525 10.25826 32919 ft 456 kts 97°
2026-05-07 00:26 48.40288 10.35316 32913 ft 455 kts 97°
2026-05-07 00:26 48.40044 10.44815 32924 ft 455 kts 97°
2026-05-07 00:27 48.39793 10.54296 32926 ft 455 kts 98°
2026-05-07 00:27 48.39534 10.63785 32925 ft 454 kts 98°
2026-05-07 00:28 48.39267 10.73257 32915 ft 454 kts 98°
2026-05-07 00:28 48.38991 10.82717 32916 ft 454 kts 98°
2026-05-07 00:29 48.38709 10.92182 32916 ft 454 kts 98°
2026-05-07 00:30 48.38122 11.11105 32917 ft 454 kts 98°
2026-05-07 00:30 48.37816 11.20573 32921 ft 454 kts 98°
2026-05-07 00:31 48.37504 11.30037 32922 ft 454 kts 99°
2026-05-07 00:31 48.37182 11.39506 32914 ft 455 kts 99°
2026-05-07 00:32 48.36850 11.48993 32918 ft 455 kts 99°
2026-05-07 00:32 48.36512 11.58476 32918 ft 455 kts 99°
2026-05-07 00:33 48.36166 11.67953 32918 ft 456 kts 99°
2026-05-07 00:33 48.35812 11.77452 32917 ft 456 kts 99°
2026-05-07 00:34 48.35451 11.86951 32916 ft 456 kts 99°
2026-05-07 00:34 48.35082 11.96443 32917 ft 456 kts 99°
2026-05-07 00:35 48.34704 12.05943 32917 ft 456 kts 99°
2026-05-07 00:35 48.34319 12.15451 32916 ft 456 kts 99°
2026-05-07 00:36 48.33926 12.24953 32911 ft 456 kts 100°
2026-05-07 00:36 48.33523 12.34459 32910 ft 457 kts 100°
2026-05-07 00:37 48.33116 12.43949 32913 ft 457 kts 100°
2026-05-07 00:37 48.32699 12.53448 32919 ft 456 kts 100°
2026-05-07 00:38 48.32273 12.62946 32922 ft 457 kts 100°
2026-05-07 00:38 48.31839 12.72456 32924 ft 457 kts 100°
2026-05-07 00:39 48.31398 12.81967 32924 ft 457 kts 100°
2026-05-07 00:39 48.30949 12.91471 32924 ft 458 kts 100°
2026-05-07 00:40 48.30492 13.00988 32924 ft 458 kts 100°
2026-05-07 00:40 48.30026 13.10505 32925 ft 458 kts 100°
2026-05-07 00:41 48.29230 13.19911 32924 ft 451 kts 109°
2026-05-07 00:41 48.27721 13.29017 32929 ft 450 kts 111°
2026-05-07 00:42 48.26074 13.38059 32924 ft 450 kts 112°
2026-05-07 00:42 48.24397 13.47110 32935 ft 451 kts 112°
2026-05-07 00:43 48.22721 13.56181 32933 ft 452 kts 112°
2026-05-07 00:43 48.20815 13.65079 32934 ft 444 kts 122°
2026-05-07 00:44 48.19322 13.69051 32934 ft 434 kts 133°
2026-05-07 00:44 48.17525 13.72639 32934 ft 430 kts 136°
2026-05-07 00:44 48.13711 13.79486 32934 ft 428 kts 139°
2026-05-07 00:45 48.09797 13.86197 32936 ft 429 kts 139°
2026-05-07 00:45 48.05886 13.92913 32936 ft 429 kts 139°
2026-05-07 00:46 48.01991 13.99641 32934 ft 429 kts 139°
2026-05-07 00:46 47.98096 14.06373 32935 ft 429 kts 139°
2026-05-07 00:47 47.94200 14.13099 32935 ft 429 kts 139°
2026-05-07 00:47 47.90297 14.19816 32933 ft 429 kts 139°
2026-05-07 00:48 47.86389 14.26531 32930 ft 430 kts 139°
2026-05-07 00:48 47.82476 14.33229 32934 ft 429 kts 139°
2026-05-07 00:49 47.78558 14.39918 32926 ft 431 kts 139°
2026-05-07 00:49 47.74637 14.46599 32918 ft 430 kts 139°
2026-05-07 00:50 47.70707 14.53274 32927 ft 430 kts 139°
2026-05-07 00:50 47.66783 14.59930 32881 ft 423 kts 139°
2026-05-07 00:51 47.62868 14.66544 32689 ft 436 kts 138°
2026-05-07 00:51 47.58851 14.73311 32493 ft 438 kts 138°
2026-05-07 00:52 47.56843 14.76696 32384 ft 438 kts 138°
2026-05-07 00:52 47.54832 14.80081 32301 ft 438 kts 138°
2026-05-07 00:52 47.52824 14.83454 32194 ft 437 kts 138°
2026-05-07 00:52 47.50810 14.86805 32094 ft 434 kts 141°
2026-05-07 00:53 47.48535 14.89612 31997 ft 423 kts 151°
2026-05-07 00:53 47.46130 14.92098 31898 ft 422 kts 152°
2026-05-07 00:53 47.41229 14.96796 31699 ft 420 kts 154°
2026-05-07 00:54 47.36296 15.01365 31503 ft 419 kts 154°
2026-05-07 00:54 47.33833 15.03643 31399 ft 419 kts 154°
2026-05-07 00:54 47.31374 15.05924 31294 ft 418 kts 154°
2026-05-07 00:55 47.26464 15.10487 31099 ft 417 kts 153°
2026-05-07 00:55 47.24016 15.12766 30996 ft 417 kts 153°
2026-05-07 00:55 47.21571 15.15042 30901 ft 416 kts 153°
2026-05-07 00:56 47.16690 15.19575 30703 ft 415 kts 153°
2026-05-07 00:56 47.14259 15.21831 30599 ft 415 kts 153°
2026-05-07 00:56 47.11824 15.24085 30500 ft 414 kts 153°
2026-05-07 00:57 47.06962 15.28582 30300 ft 413 kts 153°
2026-05-07 00:57 47.04540 15.30819 30179 ft 412 kts 153°
2026-05-07 00:57 47.02120 15.33052 29830 ft 412 kts 153°
2026-05-07 00:58 46.99709 15.35274 29459 ft 410 kts 153°
2026-05-07 00:58 46.97308 15.37486 29089 ft 407 kts 153°
2026-05-07 00:58 46.94920 15.39682 28724 ft 405 kts 153°
2026-05-07 00:58 46.92545 15.41865 28340 ft 403 kts 153°
2026-05-07 00:59 46.87830 15.46188 27599 ft 399 kts 153°
2026-05-07 00:59 46.85489 15.48331 27215 ft 397 kts 153°
2026-05-07 00:59 46.83159 15.50462 26843 ft 395 kts 153°
2026-05-07 01:00 46.80842 15.52579 26469 ft 393 kts 153°
2026-05-07 01:00 46.78533 15.54685 26094 ft 391 kts 153°
2026-05-07 01:00 46.76238 15.56775 25719 ft 389 kts 153°
2026-05-07 01:00 46.73957 15.58849 25335 ft 387 kts 153°
2026-05-07 01:01 46.71682 15.60916 24968 ft 385 kts 153°
2026-05-07 01:01 46.69420 15.62971 24539 ft 383 kts 153°
2026-05-07 01:01 46.67165 15.65019 24095 ft 381 kts 152°
2026-05-07 01:01 46.64923 15.67054 23642 ft 380 kts 152°
2026-05-07 01:02 46.62691 15.69077 23197 ft 378 kts 152°
2026-05-07 01:02 46.60472 15.71089 22737 ft 375 kts 152°
2026-05-07 01:02 46.58265 15.73084 22294 ft 373 kts 152°
2026-05-07 01:02 46.56072 15.75065 21843 ft 371 kts 153°
2026-05-07 01:03 46.53891 15.77034 21393 ft 369 kts 152°
2026-05-07 01:03 46.51723 15.78989 20949 ft 366 kts 152°
2026-05-07 01:03 46.49568 15.80930 20495 ft 364 kts 152°
2026-05-07 01:03 46.47426 15.82858 20049 ft 362 kts 153°
2026-05-07 01:04 46.45296 15.84773 19595 ft 358 kts 153°
2026-05-07 01:04 46.43207 15.86653 19126 ft 351 kts 153°
2026-05-07 01:04 46.41160 15.88494 18662 ft 343 kts 153°
2026-05-07 01:04 46.39155 15.90295 18216 ft 337 kts 153°
2026-05-07 01:05 46.37180 15.92066 17764 ft 333 kts 153°
2026-05-07 01:05 46.35219 15.93820 17315 ft 331 kts 153°
2026-05-07 01:05 46.33269 15.95566 16866 ft 329 kts 153°
2026-05-07 01:05 46.31356 15.97366 16415 ft 329 kts 148°
2026-05-07 01:06 46.29567 15.99359 15962 ft 323 kts 146°
2026-05-07 01:06 46.27842 16.01384 15506 ft 317 kts 145°
2026-05-07 01:06 46.26170 16.03411 15072 ft 312 kts 145°
2026-05-07 01:06 46.24532 16.05423 14607 ft 307 kts 144°
2026-05-07 01:07 46.22919 16.07411 14159 ft 303 kts 144°
2026-05-07 01:07 46.21329 16.09369 13700 ft 299 kts 144°
2026-05-07 01:07 46.19757 16.11295 13252 ft 295 kts 145°
2026-05-07 01:07 46.18205 16.13186 12806 ft 291 kts 145°
2026-05-07 01:08 46.16667 16.15051 12362 ft 288 kts 145°
2026-05-07 01:08 46.15147 16.16895 11917 ft 285 kts 145°
2026-05-07 01:08 46.13642 16.18726 11451 ft 281 kts 145°
2026-05-07 01:08 46.12167 16.20523 11002 ft 275 kts 145°
2026-05-07 01:09 46.10717 16.22287 10549 ft 271 kts 146°
2026-05-07 01:09 46.09291 16.24021 10099 ft 267 kts 146°
2026-05-07 01:09 46.07882 16.25728 9641 ft 264 kts 146°
2026-05-07 01:09 46.06484 16.27419 9170 ft 262 kts 146°
2026-05-07 01:10 46.05095 16.29098 8699 ft 261 kts 146°
2026-05-07 01:10 46.03712 16.30768 8223 ft 259 kts 146°
2026-05-07 01:10 46.02336 16.32427 7747 ft 258 kts 146°
2026-05-07 01:10 46.00973 16.34071 7313 ft 253 kts 146°
2026-05-07 01:11 45.99642 16.35674 6843 ft 247 kts 148°
2026-05-07 01:11 45.98224 16.36935 6376 ft 234 kts 162°
2026-05-07 01:11 45.96707 16.37540 5931 ft 222 kts 180°
2026-05-07 01:11 45.95240 16.37415 5647 ft 203 kts 199°
2026-05-07 01:12 45.94008 16.36683 5499 ft 185 kts 216°
2026-05-07 01:12 45.93046 16.35551 5350 ft 175 kts 227°
2026-05-07 01:12 45.92230 16.34298 5199 ft 169 kts 229°
2026-05-07 01:12 45.91443 16.33083 4972 ft 164 kts 228°
2026-05-07 01:13 45.90669 16.31901 4751 ft 162 kts 229°
2026-05-07 01:13 45.89902 16.30728 4518 ft 161 kts 229°
2026-05-07 01:13 45.89141 16.29567 4300 ft 160 kts 229°
2026-05-07 01:13 45.88385 16.28404 4086 ft 159 kts 229°
2026-05-07 01:14 45.87644 16.27268 3869 ft 151 kts 229°
2026-05-07 01:14 45.86951 16.26206 3682 ft 140 kts 229°
2026-05-07 01:14 45.86303 16.25218 3500 ft 134 kts 228°
2026-05-07 01:14 45.85679 16.24265 3333 ft 131 kts 229°
2026-05-07 01:15 45.85059 16.23310 3160 ft 131 kts 229°
2026-05-07 01:15 45.84441 16.22360 2987 ft 129 kts 229°
2026-05-07 01:15 45.83826 16.21424 2811 ft 130 kts 229°
2026-05-07 01:15 45.83200 16.20467 2638 ft 133 kts 229°
2026-05-07 01:16 45.82564 16.19495 2463 ft 135 kts 229°
2026-05-07 01:16 45.81912 16.18496 2282 ft 139 kts 229°
2026-05-07 01:16 45.81247 16.17481 2096 ft 141 kts 229°
2026-05-07 01:16 45.80571 16.16448 1906 ft 143 kts 229°
2026-05-07 01:17 45.79889 16.15407 1714 ft 144 kts 229°
2026-05-07 01:17 45.79200 16.14356 1523 ft 147 kts 228°
2026-05-07 01:17 45.78498 16.13283 1329 ft 149 kts 228°
2026-05-07 01:17 45.77786 16.12198 1131 ft 150 kts 227°
2026-05-07 01:18 45.77075 16.11114 931 ft 149 kts 227°
2026-05-07 01:18 45.76373 16.10039 756 ft 147 kts 227°
2026-05-07 01:18 45.75680 16.08978 576 ft 146 kts 227°
2026-05-07 01:18 45.74996 16.07951 385 ft 136 kts 227°
2026-05-07 01:19 45.74430 16.07088 367 ft 91 kts 226°
2026-05-07 01:19 45.74193 16.06730 361 ft 20 kts 227°
2026-05-07 01:19 45.74076 16.06549 361 ft 27 kts 227°
2026-05-07 01:19 45.73942 16.06338 368 ft 28 kts 225°
2026-05-07 01:20 45.73791 16.06327 363 ft 24 kts 137°
2026-05-07 01:20 45.73728 16.06430 366 ft 0 kts 114°
2026-05-07 01:20 45.73717 16.06444 365 ft 7 kts 139°
2026-05-07 01:20 45.73690 16.06477 361 ft 0 kts 139°